Location: Zagreb
(45.8000°N, 16.0000°E)
Time: 00:28:55
(UTC+01:00)

Transit 2A Rocket - All Passes

Search period start: 23 January 2022 00:00
Search period end: 02 February 2022 00:00
Orbit: 584 x 918 km, 66.7° (Epoch: 22 January)

Date Brightness Start Highest point End Pass type
(mag) Time Alt. Az. Time Alt. Az. Time Alt. Az.
23 Jan - 01:02:58 10° N 01:04:45 11° NNE 01:06:30 10° NE night (unlit)
23 Jan - 02:44:24 10° NNW 02:49:27 29° NE 02:54:08 10° E visible
23 Jan - 04:26:54 10° NW 04:32:30 59° WSW 04:37:34 10° SSE visible
23 Jan - 17:24:18 10° ESE 17:26:17 12° E 17:28:16 10° E visible
23 Jan - 19:01:50 10° SSW 19:07:49 68° ESE 19:13:54 10° NE visible
23 Jan - 20:45:39 10° WSW 20:50:58 30° NW 20:56:17 10° NNE visible
23 Jan - 22:33:33 10° NW 22:35:39 12° NNW 22:37:44 10° N visible
24 Jan - 02:01:54 10° NNW 02:06:18 21° NE 02:10:27 10° E night (unlit)
24 Jan - 03:44:05 10° NNW 03:49:51 86° ENE 03:55:03 10° SSE visible
24 Jan - 05:28:31 10° WNW 05:31:32 15° WSW 05:34:25 10° SW visible
24 Jan - 18:19:36 10° S 18:25:15 43° ESE 18:30:59 10° NE visible
24 Jan - 20:02:11 10° WSW 20:07:57 42° NW 20:13:44 10° NNE visible
24 Jan - 21:49:00 10° WNW 21:52:15 14° NNW 21:55:27 10° N visible
25 Jan - 01:19:29 10° N 01:23:02 16° NNE 01:26:27 10° ENE night (unlit)
25 Jan - 03:01:23 10° NNW 03:07:03 55° NE 03:12:12 10° SE night (unlit)
25 Jan - 04:44:44 10° NW 04:49:15 26° WSW 04:53:26 10° SSW visible
25 Jan - 17:37:51 10° SSE 17:42:48 27° ESE 17:47:49 10° NE visible
25 Jan - 19:19:02 10° SW 19:25:03 62° NW 19:31:08 10° NNE visible
25 Jan - 21:04:44 10° WNW 21:08:55 19° NNW 21:13:04 10° NNE visible
26 Jan - 00:37:10 10° N 00:39:40 13° NNE 00:42:07 10° NE night (unlit)
26 Jan - 02:18:48 10° NNW 02:24:08 36° NE 02:29:01 10° ESE night (unlit)
26 Jan - 04:01:32 10° NW 04:06:50 42° WSW 04:11:39 10° S night (unlit)
26 Jan - 16:56:48 10° SE 17:00:27 17° ESE 17:04:08 10° ENE daylight
26 Jan - 18:36:11 10° SSW 18:42:17 88° ESE 18:48:26 10° NNE visible
26 Jan - 20:20:46 10° W 20:25:42 25° NW 20:30:37 10° NNE visible
26 Jan - 22:09:33 10° NNW 22:10:37 10° NNW 22:11:40 10° N visible
26 Jan - 23:55:07 10° N 23:56:13 10° NNE 23:57:18 10° NNE night (unlit)
27 Jan - 01:36:16 10° NNW 01:41:03 26° NE 01:45:30 10° E night (unlit)
27 Jan - 03:18:37 10° NW 03:24:17 71° WSW 03:29:23 10° SSE night (unlit)
27 Jan - 17:53:43 10° SSW 17:59:38 57° ESE 18:05:37 10° NE visible
27 Jan - 19:37:06 10° WSW 19:42:37 34° NW 19:48:06 10° NNE visible
27 Jan - 21:24:37 10° NW 21:27:09 13° NNW 21:29:38 10° N visible
28 Jan - 00:53:48 10° NNW 00:57:52 19° NNE 01:01:42 10° ENE night (unlit)
28 Jan - 02:35:51 10° NNW 02:41:35 73° NE 02:46:44 10° SE night (unlit)
28 Jan - 04:19:48 10° WNW 04:23:26 18° WSW 04:26:53 10° SSW night (unlit)
28 Jan - 17:11:38 10° S 17:17:06 36° ESE 17:22:37 10° NE daylight
28 Jan - 18:53:44 10° SW 18:59:38 49° NW 19:05:32 10° NNE visible
28 Jan - 20:40:10 10° WNW 20:43:45 16° NNW 20:47:19 10° N visible
29 Jan - 00:11:25 10° N 00:14:33 15° NNE 00:17:35 10° ENE night (unlit)
29 Jan - 01:53:12 10° NNW 01:58:44 47° NE 02:03:45 10° ESE night (unlit)
29 Jan - 03:36:18 10° NW 03:41:06 31° WSW 03:45:32 10° S night (unlit)
29 Jan - 16:30:05 10° SSE 16:34:40 23° ESE 16:39:18 10° ENE daylight
29 Jan - 18:10:42 10° SW 18:16:47 72° NW 18:22:54 10° NNE visible
29 Jan - 19:56:00 10° W 20:00:28 21° NNW 20:04:54 10° NNE visible
29 Jan - 23:29:10 10° N 23:31:09 12° NNE 23:33:05 10° NE night (unlit)
30 Jan - 01:10:38 10° NNW 01:15:45 32° NE 01:20:27 10° ESE night (unlit)
30 Jan - 02:53:13 10° NW 02:58:39 51° WSW 03:03:33 10° S night (unlit)
30 Jan - 15:49:29 10° SE 15:52:22 14° ESE 15:55:16 10° ENE daylight
30 Jan - 17:27:59 10° SSW 17:34:03 76° ESE 17:40:10 10° NE visible
30 Jan - 19:12:09 10° W 19:17:18 28° NW 19:22:26 10° NNE visible
30 Jan - 21:00:28 10° NNW 21:02:05 11° NNW 21:03:41 10° N visible
31 Jan - 00:28:08 10° NNW 00:32:38 23° NE 00:36:50 10° E night (unlit)
31 Jan - 02:10:22 10° NW 02:16:02 84° WSW 02:21:09 10° SSE night (unlit)
31 Jan - 03:55:23 10° WNW 03:57:35 12° W 03:59:41 10° SW night (unlit)
31 Jan - 16:45:38 10° S 16:51:26 49° ESE 16:57:17 10° NE daylight
31 Jan - 18:28:35 10° WSW 18:34:15 38° NW 18:39:54 10° NNE visible
31 Jan - 20:15:44 10° NW 20:18:38 13° NNW 20:21:30 10° N visible
31 Jan - 23:45:42 10° N 23:49:24 17° NNE 23:52:55 10° ENE night (unlit)
01 Feb - 01:27:38 10° NNW 01:33:17 62° NE 01:38:22 10° SE night (unlit)
01 Feb - 03:11:13 10° WNW 03:15:19 22° WSW 03:19:09 10° SSW night (unlit)
01 Feb - 16:03:44 10° S 16:08:57 31° ESE 16:14:11 10° NE daylight
01 Feb - 17:45:20 10° SW 17:51:20 56° NW 17:57:19 10° NNE visible
01 Feb - 19:31:22 10° WNW 19:35:17 17° NNW 19:39:09 10° N visible
01 Feb - 23:03:21 10° N 23:06:03 13° NNE 23:08:39 10° NE night (unlit)
